Wetterdaten: Woche 25.02.13 - 03.03.13 (KW9)
Datum Zeit Temperatur Luftfeuchte Luftdruck Niederschlag Windrichtung Sonnenschein Solar Wind
25.02.2013 00:00 -5,3 C 90 % 1015,0 hPa 0,0 l/m N 0,00 h 0 W/m 0,0 km/h (0 Bft)
25.02.2013 01:00 -6,0 C 91 % 1015,1 hPa 0,0 l/m N 0,00 h 0 W/m 0,0 km/h (0 Bft)
25.02.2013 02:00 -6,3 C 91 % 1014,9 hPa 0,0 l/m N 0,00 h 0 W/m 0,3 km/h (0 Bft)
25.02.2013 03:00 -6,2 C 92 % 1015,0 hPa 0,0 l/m N 0,00 h 0 W/m 0,0 km/h (0 Bft)
25.02.2013 04:00 -5,9 C 93 % 1015,5 hPa 0,0 l/m N 0,00 h 0 W/m 0,0 km/h (0 Bft)
25.02.2013 05:00 -5,9 C 93 % 1016,1 hPa 0,0 l/m N 0,00 h 0 W/m 0,3 km/h (0 Bft)
25.02.2013 06:00 -5,9 C 93 % 1016,2 hPa 0,0 l/m N 0,00 h 0 W/m 1,2 km/h (1 Bft)
25.02.2013 07:00 -5,8 C 94 % 1016,8 hPa 0,0 l/m N 0,00 h 10 W/m 0,7 km/h (0 Bft)
25.02.2013 08:00 -5,5 C 94 % 1017,1 hPa 0,0 l/m N 0,00 h 41 W/m 1,6 km/h (1 Bft)
25.02.2013 09:00 -4,6 C 94 % 1017,6 hPa 0,0 l/m N-NW 0,00 h 81 W/m 2,7 km/h (1 Bft)
25.02.2013 10:00 -3,6 C 91 % 1017,8 hPa 0,0 l/m SW 0,00 h 140 W/m 8,2 km/h (2 Bft)
25.02.2013 11:00 -3,0 C 86 % 1018,2 hPa 0,0 l/m S-SW 0,00 h 209 W/m 5,5 km/h (1 Bft)
25.02.2013 12:00 -1,4 C 82 % 1018,2 hPa 0,0 l/m S-SW 0,83 h 485 W/m 4,8 km/h (1 Bft)
25.02.2013 13:00 -0,2 C 76 % 1017,9 hPa 0,0 l/m O 1,00 h 576 W/m 7,4 km/h (2 Bft)
25.02.2013 14:00 0,1 C 74 % 1018,1 hPa 0,0 l/m O 0,58 h 374 W/m 10,1 km/h (2 Bft)
25.02.2013 15:00 -0,2 C 74 % 1018,4 hPa 0,0 l/m O 0,42 h 210 W/m 9,1 km/h (2 Bft)
25.02.2013 16:00 -0,4 C 75 % 1019,0 hPa 0,0 l/m NO 0,58 h 142 W/m 7,6 km/h (2 Bft)
25.02.2013 17:00 -0,9 C 76 % 1019,6 hPa 0,0 l/m NO 0,17 h 35 W/m 6,1 km/h (2 Bft)
25.02.2013 18:00 -1,8 C 78 % 1020,3 hPa 0,0 l/m N 0,00 h 0 W/m 3,2 km/h (1 Bft)
25.02.2013 19:00 -3,1 C 80 % 1021,0 hPa 0,0 l/m N 0,00 h 0 W/m 1,7 km/h (1 Bft)
25.02.2013 20:00 -4,2 C 83 % 1021,6 hPa 0,0 l/m N 0,00 h 0 W/m 1,2 km/h (1 Bft)
25.02.2013 21:00 -4,8 C 87 % 1022,1 hPa 0,0 l/m NO 0,00 h 0 W/m 3,7 km/h (1 Bft)
25.02.2013 22:00 -5,3 C 89 % 1022,2 hPa 0,0 l/m NO 0,00 h 0 W/m 3,2 km/h (1 Bft)
25.02.2013 23:00 -5,8 C 90 % 1022,5 hPa 0,0 l/m NO 0,00 h 0 W/m 3,5 km/h (1 Bft)
26.02.2013 00:00 -5,7 C 92 % 1023,0 hPa 0,0 l/m N 0,00 h 0 W/m 2,5 km/h (1 Bft)
26.02.2013 01:00 -6,0 C 92 % 1023,7 hPa 0,0 l/m NO 0,00 h 0 W/m 4,5 km/h (1 Bft)
26.02.2013 02:00 -4,9 C 94 % 1024,0 hPa 0,0 l/m O-NO 0,00 h 0 W/m 8,7 km/h (2 Bft)
26.02.2013 03:00 -4,4 C 95 % 1024,0 hPa 0,0 l/m NO 0,00 h 0 W/m 10,3 km/h (2 Bft)
26.02.2013 04:00 -4,2 C 95 % 1024,2 hPa 0,0 l/m NO 0,00 h 0 W/m 10,5 km/h (2 Bft)
26.02.2013 05:00 -4,1 C 95 % 1024,4 hPa 0,0 l/m NO 0,00 h 0 W/m 9,7 km/h (2 Bft)
26.02.2013 06:00 -3,8 C 95 % 1024,3 hPa 0,0 l/m NO 0,00 h 0 W/m 7,9 km/h (2 Bft)
26.02.2013 07:00 -3,5 C 96 % 1025,0 hPa 0,0 l/m O-NO 0,00 h 8 W/m 10,3 km/h (2 Bft)
26.02.2013 08:00 -3,2 C 95 % 1025,7 hPa 0,0 l/m O-NO 0,00 h 25 W/m 11,4 km/h (2 Bft)
26.02.2013 09:00 -2,7 C 96 % 1026,0 hPa 0,0 l/m NO 0,00 h 53 W/m 9,2 km/h (2 Bft)
26.02.2013 10:00 -2,1 C 96 % 1025,5 hPa 0,0 l/m NO 0,00 h 80 W/m 7,8 km/h (2 Bft)
26.02.2013 11:00 -1,4 C 95 % 1025,4 hPa 0,0 l/m NO 0,00 h 106 W/m 7,6 km/h (2 Bft)
26.02.2013 12:00 -0,8 C 94 % 1025,3 hPa 0,0 l/m NO 0,00 h 145 W/m 5,9 km/h (2 Bft)
26.02.2013 13:00 0,1 C 92 % 1024,9 hPa 0,8 l/m NO 0,00 h 184 W/m 7,8 km/h (2 Bft)
26.02.2013 14:00 0,2 C 92 % 1024,8 hPa 0,0 l/m NO 0,00 h 92 W/m 5,3 km/h (1 Bft)
26.02.2013 15:00 0,6 C 93 % 1024,4 hPa 0,0 l/m NO 0,00 h 95 W/m 7,0 km/h (2 Bft)
26.02.2013 16:00 0,8 C 93 % 1024,3 hPa 0,0 l/m NO 0,00 h 42 W/m 7,2 km/h (2 Bft)
26.02.2013 17:00 0,7 C 93 % 1024,5 hPa 0,0 l/m NO 0,00 h 10 W/m 5,5 km/h (1 Bft)
26.02.2013 18:00 0,7 C 94 % 1024,9 hPa 0,0 l/m NO 0,00 h 0 W/m 3,7 km/h (1 Bft)
26.02.2013 19:00 0,6 C 95 % 1025,3 hPa 0,0 l/m NO 0,00 h 0 W/m 4,7 km/h (1 Bft)
26.02.2013 20:00 0,6 C 95 % 1025,5 hPa 0,0 l/m NO 0,00 h 0 W/m 4,1 km/h (1 Bft)
26.02.2013 21:00 0,6 C 96 % 1025,5 hPa 0,0 l/m NO 0,00 h 0 W/m 3,5 km/h (1 Bft)
26.02.2013 22:00 0,6 C 96 % 1025,6 hPa 0,0 l/m NO 0,00 h 0 W/m 5,7 km/h (1 Bft)
26.02.2013 23:00 0,5 C 96 % 1025,7 hPa 0,0 l/m NO 0,00 h 0 W/m 4,8 km/h (1 Bft)
27.02.2013 00:00 0,4 C 96 % 1025,8 hPa 0,0 l/m NO 0,00 h 0 W/m 5,1 km/h (1 Bft)
27.02.2013 01:00 0,4 C 96 % 1026,1 hPa 0,0 l/m NO 0,00 h 0 W/m 5,7 km/h (1 Bft)
27.02.2013 02:00 0,4 C 97 % 1026,2 hPa 0,0 l/m NO 0,00 h 0 W/m 5,3 km/h (1 Bft)
27.02.2013 03:00 0,3 C 97 % 1025,8 hPa 0,0 l/m NO 0,00 h 0 W/m 4,9 km/h (1 Bft)
27.02.2013 04:00 0,3 C 97 % 1025,7 hPa 0,0 l/m NO 0,00 h 0 W/m 5,3 km/h (1 Bft)
27.02.2013 05:00 0,4 C 97 % 1025,7 hPa 0,0 l/m NO 0,00 h 0 W/m 8,6 km/h (2 Bft)
27.02.2013 06:00 0,5 C 97 % 1025,4 hPa 0,0 l/m NO 0,00 h 0 W/m 9,3 km/h (2 Bft)
27.02.2013 07:00 0,6 C 98 % 1025,7 hPa 0,0 l/m NO 0,00 h 8 W/m 10,6 km/h (2 Bft)
27.02.2013 08:00 0,6 C 98 % 1026,0 hPa 0,2 l/m NO 0,00 h 20 W/m 9,9 km/h (2 Bft)
27.02.2013 09:00 0,8 C 98 % 1026,4 hPa 0,0 l/m O-NO 0,00 h 45 W/m 13,3 km/h (3 Bft)
27.02.2013 10:00 0,8 C 98 % 1026,4 hPa 0,0 l/m NO 0,00 h 66 W/m 14,4 km/h (3 Bft)
27.02.2013 11:00 1,1 C 98 % 1026,3 hPa 0,0 l/m O-NO 0,00 h 128 W/m 15,2 km/h (3 Bft)
27.02.2013 12:00 1,7 C 95 % 1026,0 hPa 0,0 l/m O-NO 0,00 h 125 W/m 16,9 km/h (3 Bft)
27.02.2013 13:00 1,6 C 94 % 1025,6 hPa 0,0 l/m O-NO 0,00 h 96 W/m 19,8 km/h (4 Bft)
27.02.2013 14:00 1,4 C 95 % 1025,4 hPa 0,0 l/m NO 0,00 h 68 W/m 16,1 km/h (3 Bft)
27.02.2013 15:00 1,3 C 95 % 1025,1 hPa 0,0 l/m O-NO 0,00 h 42 W/m 15,8 km/h (3 Bft)
27.02.2013 16:00 1,1 C 95 % 1025,0 hPa 0,0 l/m NO 0,00 h 20 W/m 14,4 km/h (3 Bft)
27.02.2013 17:00 0,8 C 96 % 1025,0 hPa 0,0 l/m O-NO 0,00 h 8 W/m 14,1 km/h (3 Bft)
27.02.2013 18:00 0,7 C 96 % 1025,0 hPa 0,0 l/m O-NO 0,00 h 0 W/m 14,5 km/h (3 Bft)
27.02.2013 19:00 0,5 C 97 % 1025,2 hPa 0,0 l/m NO 0,00 h 0 W/m 15,4 km/h (3 Bft)
27.02.2013 20:00 0,4 C 97 % 1025,3 hPa 0,0 l/m O-NO 0,00 h 0 W/m 13,0 km/h (3 Bft)
27.02.2013 21:00 0,4 C 97 % 1025,3 hPa 0,0 l/m O-NO 0,00 h 0 W/m 11,0 km/h (2 Bft)
27.02.2013 22:00 0,4 C 97 % 1025,5 hPa 0,0 l/m O-NO 0,00 h 0 W/m 11,8 km/h (2 Bft)
27.02.2013 23:00 0,4 C 97 % 1025,2 hPa 0,0 l/m O-NO 0,00 h 0 W/m 10,6 km/h (2 Bft)
28.02.2013 00:00 0,4 C 97 % 1025,1 hPa 0,0 l/m O-NO 0,00 h 0 W/m 7,5 km/h (2 Bft)
28.02.2013 01:00 0,3 C 98 % 1024,7 hPa 0,0 l/m NO 0,00 h 0 W/m 8,8 km/h (2 Bft)
28.02.2013 02:00 0,3 C 98 % 1024,5 hPa 0,0 l/m O-NO 0,00 h 0 W/m 7,2 km/h (2 Bft)
28.02.2013 03:00 0,3 C 98 % 1024,0 hPa 0,0 l/m NO 0,00 h 0 W/m 8,4 km/h (2 Bft)
28.02.2013 04:00 0,2 C 98 % 1023,6 hPa 0,0 l/m NO 0,00 h 0 W/m 7,6 km/h (2 Bft)
28.02.2013 05:00 0,2 C 98 % 1023,3 hPa 0,0 l/m O-NO 0,00 h 0 W/m 6,3 km/h (2 Bft)
28.02.2013 06:00 0,2 C 98 % 1023,4 hPa 0,2 l/m O-NO 0,00 h 0 W/m 4,4 km/h (1 Bft)
28.02.2013 07:00 0,3 C 98 % 1023,4 hPa 0,0 l/m O 0,00 h 7 W/m 6,5 km/h (2 Bft)
28.02.2013 08:00 0,4 C 98 % 1023,8 hPa 0,0 l/m O 0,00 h 21 W/m 5,7 km/h (1 Bft)
28.02.2013 09:00 0,7 C 98 % 1024,1 hPa 0,0 l/m O 0,00 h 41 W/m 4,9 km/h (1 Bft)
28.02.2013 10:00 1,0 C 97 % 1024,0 hPa 0,0 l/m O 0,00 h 70 W/m 8,2 km/h (2 Bft)
28.02.2013 11:00 1,3 C 94 % 1023,9 hPa 0,0 l/m O 0,00 h 84 W/m 7,1 km/h (2 Bft)
28.02.2013 12:00 1,6 C 93 % 1023,5 hPa 0,0 l/m O 0,00 h 102 W/m 7,3 km/h (2 Bft)
28.02.2013 13:00 1,8 C 91 % 1023,1 hPa 0,0 l/m O 0,00 h 90 W/m 7,1 km/h (2 Bft)
28.02.2013 14:00 1,8 C 91 % 1023,0 hPa 0,0 l/m O 0,00 h 82 W/m 7,9 km/h (2 Bft)
28.02.2013 15:00 1,8 C 90 % 1023,1 hPa 0,0 l/m O 0,00 h 55 W/m 4,7 km/h (1 Bft)
28.02.2013 16:00 1,7 C 90 % 1023,1 hPa 0,0 l/m O 0,00 h 29 W/m 4,4 km/h (1 Bft)
28.02.2013 17:00 1,5 C 90 % 1023,2 hPa 0,0 l/m O 0,00 h 10 W/m 3,2 km/h (1 Bft)
28.02.2013 18:00 1,3 C 90 % 1023,2 hPa 0,0 l/m O 0,00 h 0 W/m 3,5 km/h (1 Bft)
28.02.2013 19:00 1,1 C 91 % 1023,1 hPa 0,0 l/m O 0,00 h 0 W/m 3,6 km/h (1 Bft)
28.02.2013 20:00 0,9 C 92 % 1023,0 hPa 0,0 l/m O 0,00 h 0 W/m 3,6 km/h (1 Bft)
28.02.2013 21:00 0,7 C 92 % 1022,9 hPa 0,0 l/m O 0,00 h 0 W/m 4,3 km/h (1 Bft)
28.02.2013 22:00 0,5 C 92 % 1022,8 hPa 0,0 l/m O 0,00 h 0 W/m 2,0 km/h (1 Bft)
28.02.2013 23:00 0,3 C 92 % 1022,5 hPa 0,0 l/m O 0,00 h 0 W/m 2,4 km/h (1 Bft)
01.03.2013 00:00 0,3 C 93 % 1022,5 hPa 0,0 l/m O 0,00 h 0 W/m 2,5 km/h (1 Bft)
01.03.2013 01:00 0,2 C 92 % 1022,4 hPa 0,0 l/m O 0,00 h 0 W/m 2,7 km/h (1 Bft)
01.03.2013 02:00 0,1 C 93 % 1022,0 hPa 0,0 l/m N 0,00 h 0 W/m 2,4 km/h (1 Bft)
01.03.2013 03:00 -0,1 C 93 % 1021,5 hPa 0,0 l/m O 0,00 h 0 W/m 3,5 km/h (1 Bft)
01.03.2013 04:00 -0,2 C 93 % 1021,2 hPa 0,0 l/m O 0,00 h 0 W/m 2,7 km/h (1 Bft)
01.03.2013 05:00 -0,3 C 93 % 1021,1 hPa 0,0 l/m N 0,00 h 0 W/m 2,5 km/h (1 Bft)
01.03.2013 06:00 -0,3 C 94 % 1021,1 hPa 0,0 l/m O 0,00 h 0 W/m 5,9 km/h (2 Bft)
01.03.2013 07:00 -0,6 C 94 % 1021,2 hPa 0,0 l/m O-NO 0,00 h 9 W/m 6,7 km/h (2 Bft)
01.03.2013 08:00 -0,7 C 94 % 1021,5 hPa 0,0 l/m O 0,00 h 27 W/m 9,3 km/h (2 Bft)
01.03.2013 09:00 -0,6 C 95 % 1021,6 hPa 0,0 l/m O 0,00 h 53 W/m 8,9 km/h (2 Bft)
01.03.2013 10:00 -0,3 C 95 % 1021,5 hPa 0,0 l/m O-SO 0,00 h 73 W/m 5,5 km/h (1 Bft)
01.03.2013 11:00 -0,2 C 94 % 1021,5 hPa 0,0 l/m O-SO 0,00 h 90 W/m 6,4 km/h (2 Bft)
01.03.2013 12:00 0,2 C 93 % 1021,2 hPa 0,0 l/m O-NO 0,00 h 113 W/m 9,3 km/h (2 Bft)
01.03.2013 13:00 0,3 C 93 % 1020,9 hPa 0,0 l/m O-NO 0,00 h 91 W/m 11,7 km/h (2 Bft)
01.03.2013 14:00 0,0 C 93 % 1020,9 hPa 0,0 l/m NO 0,00 h 66 W/m 8,9 km/h (2 Bft)
01.03.2013 15:00 0,0 C 93 % 1020,7 hPa 0,0 l/m NO 0,00 h 48 W/m 12,5 km/h (3 Bft)
01.03.2013 16:00 -0,0 C 93 % 1020,4 hPa 0,0 l/m O-NO 0,00 h 24 W/m 14,0 km/h (3 Bft)
01.03.2013 17:00 -0,4 C 93 % 1020,5 hPa 0,0 l/m NO 0,00 h 8 W/m 11,2 km/h (2 Bft)
01.03.2013 18:00 -0,7 C 94 % 1020,9 hPa 0,0 l/m NO 0,00 h 0 W/m 11,8 km/h (2 Bft)
01.03.2013 19:00 -0,9 C 95 % 1021,3 hPa 0,0 l/m O-NO 0,00 h 0 W/m 9,5 km/h (2 Bft)
01.03.2013 20:00 -1,0 C 95 % 1021,5 hPa 0,0 l/m O 0,00 h 0 W/m 9,3 km/h (2 Bft)
01.03.2013 21:00 -1,1 C 95 % 1021,6 hPa 0,0 l/m O-NO 0,00 h 0 W/m 12,1 km/h (2 Bft)
01.03.2013 22:00 -1,2 C 96 % 1021,8 hPa 0,0 l/m O-NO 0,00 h 0 W/m 12,2 km/h (2 Bft)
01.03.2013 23:00 -1,1 C 96 % 1022,1 hPa 0,0 l/m O-NO 0,00 h 0 W/m 16,2 km/h (3 Bft)
02.03.2013 00:00 -1,2 C 96 % 1022,3 hPa 0,0 l/m O 0,00 h 0 W/m 13,4 km/h (3 Bft)
02.03.2013 01:00 -1,1 C 96 % 1022,2 hPa 0,0 l/m O 0,00 h 0 W/m 14,2 km/h (3 Bft)
02.03.2013 02:00 -1,1 C 96 % 1022,0 hPa 0,0 l/m O 0,00 h 0 W/m 13,2 km/h (3 Bft)
02.03.2013 03:00 -1,2 C 96 % 1021,9 hPa 0,0 l/m O 0,00 h 0 W/m 14,2 km/h (3 Bft)
02.03.2013 04:00 -1,3 C 96 % 1022,0 hPa 0,0 l/m O 0,00 h 0 W/m 13,2 km/h (3 Bft)
02.03.2013 05:00 -1,4 C 96 % 1022,1 hPa 0,0 l/m O-NO 0,00 h 0 W/m 15,4 km/h (3 Bft)
02.03.2013 06:00 -1,5 C 96 % 1022,1 hPa 0,0 l/m O-NO 0,00 h 0 W/m 12,5 km/h (3 Bft)
02.03.2013 07:00 -1,5 C 96 % 1022,2 hPa 0,0 l/m O 0,00 h 7 W/m 9,8 km/h (2 Bft)
02.03.2013 08:00 -1,5 C 96 % 1022,6 hPa 0,0 l/m O 0,00 h 17 W/m 9,8 km/h (2 Bft)
02.03.2013 09:00 -1,3 C 96 % 1022,7 hPa 0,0 l/m O-SO 0,00 h 33 W/m 11,0 km/h (2 Bft)
02.03.2013 10:00 -1,2 C 96 % 1022,9 hPa 0,0 l/m O-NO 0,00 h 48 W/m 7,5 km/h (2 Bft)
02.03.2013 11:00 -0,9 C 95 % 1022,7 hPa 0,0 l/m O 0,00 h 65 W/m 11,8 km/h (2 Bft)
02.03.2013 12:00 -0,8 C 94 % 1022,5 hPa 0,0 l/m O 0,00 h 66 W/m 13,3 km/h (3 Bft)
02.03.2013 13:00 -0,9 C 94 % 1022,1 hPa 0,0 l/m O-NO 0,00 h 69 W/m 13,3 km/h (3 Bft)
02.03.2013 14:00 -0,9 C 93 % 1021,8 hPa 0,0 l/m O 0,00 h 59 W/m 12,3 km/h (3 Bft)
02.03.2013 15:00 -0,8 C 93 % 1021,6 hPa 0,0 l/m O-NO 0,00 h 43 W/m 10,3 km/h (2 Bft)
02.03.2013 16:00 -0,8 C 93 % 1021,5 hPa 0,0 l/m O 0,00 h 28 W/m 9,0 km/h (2 Bft)
02.03.2013 17:00 -0,9 C 92 % 1021,3 hPa 0,0 l/m O 0,00 h 10 W/m 6,7 km/h (2 Bft)
02.03.2013 18:00 -1,1 C 93 % 1021,8 hPa 0,0 l/m NO 0,00 h 0 W/m 3,2 km/h (1 Bft)
02.03.2013 19:00 -1,2 C 93 % 1022,1 hPa 0,0 l/m NO 0,00 h 0 W/m 3,1 km/h (1 Bft)
02.03.2013 20:00 -1,3 C 93 % 1022,5 hPa 0,0 l/m NO 0,00 h 0 W/m 2,0 km/h (1 Bft)
02.03.2013 21:00 -1,3 C 93 % 1022,7 hPa 0,0 l/m N 0,00 h 0 W/m 2,4 km/h (1 Bft)
02.03.2013 22:00 -1,4 C 93 % 1022,6 hPa 0,0 l/m NO 0,00 h 0 W/m 2,0 km/h (1 Bft)
02.03.2013 23:00 -1,6 C 93 % 1022,3 hPa 0,0 l/m W-NW 0,00 h 0 W/m 3,1 km/h (1 Bft)
03.03.2013 00:00 -1,7 C 93 % 1021,9 hPa 0,0 l/m W-NW 0,00 h 0 W/m 3,6 km/h (1 Bft)
03.03.2013 01:00 -1,7 C 94 % 1022,2 hPa 0,0 l/m W-NW 0,00 h 0 W/m 2,8 km/h (1 Bft)
03.03.2013 02:00 -1,8 C 93 % 1022,2 hPa 0,0 l/m W-NW 0,00 h 0 W/m 4,0 km/h (1 Bft)
03.03.2013 03:00 -1,9 C 93 % 1022,0 hPa 0,0 l/m W-NW 0,00 h 0 W/m 3,7 km/h (1 Bft)
03.03.2013 04:00 -2,2 C 93 % 1022,0 hPa 0,0 l/m N 0,00 h 0 W/m 2,4 km/h (1 Bft)
03.03.2013 05:00 -2,2 C 93 % 1022,0 hPa 0,0 l/m W 0,00 h 0 W/m 3,9 km/h (1 Bft)
03.03.2013 06:00 -2,3 C 93 % 1021,7 hPa 0,0 l/m W 0,00 h 0 W/m 1,7 km/h (1 Bft)
03.03.2013 07:00 -2,4 C 93 % 1022,0 hPa 0,0 l/m W-SW 0,00 h 11 W/m 4,5 km/h (1 Bft)
03.03.2013 08:00 -2,3 C 93 % 1022,4 hPa 0,0 l/m SW 0,00 h 31 W/m 3,3 km/h (1 Bft)
03.03.2013 09:00 -2,1 C 93 % 1022,5 hPa 0,0 l/m SW 0,00 h 63 W/m 3,9 km/h (1 Bft)
03.03.2013 10:00 -1,8 C 91 % 1022,5 hPa 0,0 l/m NO 0,00 h 114 W/m 7,2 km/h (2 Bft)
03.03.2013 11:00 -1,2 C 89 % 1022,6 hPa 0,0 l/m NO 0,00 h 176 W/m 9,7 km/h (2 Bft)
03.03.2013 12:00 -0,1 C 84 % 1022,3 hPa 0,0 l/m NO 0,67 h 505 W/m 10,3 km/h (2 Bft)
03.03.2013 13:00 1,5 C 78 % 1021,5 hPa 0,0 l/m NO 1,00 h 590 W/m 8,0 km/h (2 Bft)
03.03.2013 14:00 2,8 C 74 % 1020,9 hPa 0,0 l/m NO 1,00 h 519 W/m 9,5 km/h (2 Bft)
03.03.2013 15:00 3,6 C 72 % 1020,4 hPa 0,0 l/m O-NO 1,00 h 399 W/m 10,1 km/h (2 Bft)
03.03.2013 16:00 3,8 C 72 % 1020,0 hPa 0,0 l/m O 1,00 h 238 W/m 10,8 km/h (2 Bft)
03.03.2013 17:00 3,3 C 74 % 1020,0 hPa 0,0 l/m O 0,67 h 58 W/m 7,9 km/h (2 Bft)
03.03.2013 18:00 2,2 C 75 % 1020,4 hPa 0,0 l/m N 0,00 h 6 W/m 2,7 km/h (1 Bft)
03.03.2013 19:00 0,6 C 79 % 1020,4 hPa 0,0 l/m N 0,00 h 0 W/m 1,9 km/h (1 Bft)
03.03.2013 20:00 -0,7 C 83 % 1020,5 hPa 0,0 l/m N 0,00 h 0 W/m 2,3 km/h (1 Bft)
03.03.2013 21:00 -1,5 C 86 % 1020,5 hPa 0,0 l/m O 0,00 h 0 W/m 2,3 km/h (1 Bft)
03.03.2013 22:00 -1,9 C 88 % 1020,5 hPa 0,0 l/m O 0,00 h 0 W/m 4,5 km/h (1 Bft)
03.03.2013 23:00 -2,3 C 89 % 1020,4 hPa 0,0 l/m O 0,00 h 0 W/m 3,6 km/h (1 Bft)
Min-Datum _ 25.02.13 03.03.13 25.02.13 - - - - 25.02.13
_ Min-Zeit 02:10 15:05 02:55 - - - - 00:00
Minimum _ -6,3 C 71 % 1014,8 hPa - - - - 0,0 km/h (0 Bft)
Max-Datum _ 03.03.13 27.02.13 27.02.13 26.02.13 - 25.02.13 03.03.13 27.02.13
_ Max-Zeit 16:15 07:15 09:50 13:00 - 12:10 12:25 13:25
Maximum _ 4,0 C 98 % 1026,5 hPa 0,8 l/m - 0,08 h 668 W/m 25,7 km/h
O-NO (4 Bft)
Durchschnitt _ -0,9 C 92 % 1022,4 hPa #1,2 l/m NO #8:55 h 104 W/m 7,2 km/h (2 Bft)